Regional Weather Roundup
Issued by NWS

Home | Current Version | Previous Version | Text Only | Print | Product List | Glossary Off
Versions: 1 2 3 4 5 6 7 8 9 10 11 12 13 14 15 16 17 18 19 20 21 22 23 24 25 26 27 28 29 30 31 32 33 34 35 36 37 38 39 40 41 42 43 44 45 46 47 48 49 50

056
ASUS43 KMKX 202059
RWRWI

WISCONSIN REGIONAL WEATHER ROUNDUP
NATIONAL WEATHER SERVICE MILWAUKEE/SULLIVAN WI
300 PM CST SAT JAN 20 2018

NOTE: "FAIR" INDICATES FEW OR NO CLOUDS BELOW 12,000 FEET WITH NO
SIGNIFICANT WEATHER AND/OR OBSTRUCTIONS TO VISIBILITY.

WIZ001-002-006>008-014>016-023>028-202200-
NORTHWEST WISCONSIN

CITY           SKY/WX    TMP DP  RH WIND       PRES   REMARKS
SUPERIOR ARPT  FAIR      42  30  63 W5        29.81S
ASHLAND        FAIR      40  30  67 SW7       29.83S
HAYWARD        CLOUDY    39  30  70 S3        29.84R
SIREN          CLOUDY    40  30  67 W7        29.85R
CUMBERLAND     CLOUDY    37  30  75 SW8       29.85S WCI  31
RICE LAKE      PTSUNNY   40  32  73 S6        29.87F
CHETEK         NOT AVBL
LADYSMITH      CLOUDY    38  31  76 S3        29.87F
EAU CLAIRE     NOT AVBL
MENOMONIE      CLOUDY    39  31  73 SE5       29.88S
NEW RICHMOND   CLOUDY    39  30  70 S5        29.87S
OSCEOLA        CLOUDY    37  31  79 S3        29.89S
$$

WIZ003>005-009-010-017-018-202200-
NORTH CENTRAL WISCONSIN

CITY           SKY/WX    TMP DP  RH WIND       PRES   REMARKS
MANITOWISH WTR PTSUNNY   36  32  86 S5        29.83R WCI  32
ARBOR VITAE    PTSUNNY   39  33  78 S5        29.84R
WOODRUFF       PTSUNNY   39  33  78 S5        29.84R
RHINELANDER    CLOUDY    36  31  82 CALM      29.86R
EAGLE RIVER    FAIR      36  29  78 SW6       29.84R WCI  31
LAND O LAKES   FAIR      39  31  71 SW3       29.85R
PHILLIPS       CLOUDY    37  31  80 S6        29.84S WCI  32
TOMAHAWK       CLOUDY    36  30  79 CALM      29.86S
MEDFORD        CLOUDY    37  31  79 S5        29.86R WCI  33
MERRILL        CLOUDY    39  31  74 CALM      29.88R
$$

WIZ029-030-035-036-043>047-202200-
CENTRAL WISCONSIN

CITY           SKY/WX    TMP DP  RH WIND       PRES   REMARKS
WAUSAU         CLOUDY    41  30  65 CALM      29.85R
MOSINEE        CLOUDY    39  30  70 CALM      29.88R
MARSHFIELD     CLOUDY    40  31  70 CALM      29.87R
STEVENS POINT  FAIR      40  30  67 SW3       29.89R
WAUPACA        FAIR      44  32  62 CALM      29.90R
WAUTOMA        FAIR      43  31  62 CALM      29.90R
WISC RAPIDS    FAIR      40  29  64 CALM      29.90R
CAMP DOUGLAS   CLOUDY    25  25  99 CALM      29.88R
$$

WIZ011>013-019>022-031-037>040-048>050-202200-
NORTHEAST WISCONSIN

CITY           SKY/WX    TMP DP  RH WIND       PRES   REMARKS
ANTIGO         CLOUDY    35  31  85 CALM      29.87R
SHAWANO        FAIR      44  31  59 CALM      29.89R
OCONTO         FAIR      40  30  69 SE6       29.89R
STURGEON BAY   FAIR      40  29  64 CALM      29.90R
GREEN BAY      FAIR      40  30  67 CALM      29.89R
MANITOWOC      FAIR      42  31  64 S5        29.91R
APPLETON       PTSUNNY   39  28  65 CALM      29.88R
CLINTONVILLE   FAIR      41  30  65 S5        29.88S
OSHKOSH        FAIR      42  33  70 S3        29.89S
$$

WIZ032>034-041-042-053>061-202200-
SOUTHWEST WISCONSIN

CITY           SKY/WX    TMP DP  RH WIND       PRES   REMARKS
LA CROSSE      FAIR      38  32  79 CALM      29.90S
SPARTA         FAIR      43  33  68 CALM      29.90S
VIROQUA        FAIR      43  35  73 CALM      29.87R
BOSCOBEL       FAIR      51  33  50 CALM      29.88F
PRAIRIE DU CHI FAIR      47  32  54 CALM      29.87S
PLATTEVILLE    FAIR      46  36  68 CALM      29.88S
$$

WIZ056-057-062-063-064-067-068-202200-
SOUTH CENTRAL WISCONSIN

CITY           SKY/WX    TMP DP  RH WIND       PRES   REMARKS
REEDSBURG      FAIR      45  32  60 CALM      29.88S
BARABOO/DELLS  FAIR      46  31  55 CALM      29.88S
LONE ROCK      FAIR      47  34  60 CALM      29.89S
MINERAL POINT  FAIR      48  36  61 CALM      29.88S
MADISON        FAIR      50  31  48 VRB3      29.89R
MIDDLETON      FAIR      50  33  52 NE3       29.89R
WATERTOWN      FAIR      47  33  58 CALM      29.89S
MONROE         FAIR      43  32  65 S6        29.89R
JANESVILLE     MOSUNNY   45  32  61 S7        29.90R
$$

WIZ051-052-058>065-066-070>072-202200-
SOUTHEAST WISCONSIN

CITY           SKY/WX    TMP DP  RH WIND       PRES   REMARKS
MILWAUKEE      PTSUNNY   47  34  60 E10       29.89R
WAUKESHA       SUNNY     48  30  49 CALM      29.90R
MILWAUKEE/TIMM SUNNY     48  28  46 NE7       29.89R
RACINE         FAIR      48  33  56 SW5       29.91R
BURLINGTON     FAIR      46  32  58 SW6       29.89S
KENOSHA        FAIR      47  31  53 SW6       29.90R
FOND DU LAC    FAIR      44  30  57 CALM      29.90R
SHEBOYGAN      FAIR      42  33  70 SE3       29.91R
WEST BEND      FAIR      46  32  57 NE6       29.89R
JUNEAU         FAIR      44  32  63 CALM      29.90R
$$

LSZ147-162-202200-
LAKE SUPERIOR

STATION/POSITION TIME  TEMP    WIND        PRES    WAVE
                       AIR SEA DIR/SP/G            HT/PER
                 (UTC) (F)     (DEG/KT/KT) (MB)    (FT/S)
DEVILS ISLAND    2000   35     210/  5/  7 1010.1F
SAXON HARBOR     2040   43     200/  6/ 11 1009.8S
$$

LMZ867-665-643>646-202200-
LAKE MICHIGAN

STATION/POSITION TIME  TEMP    WIND        PRES    WAVE
                       AIR SEA DIR/SP/G            HT/PER
                 (UTC) (F)     (DEG/KT/KT) (MB)    (FT/S)
NORTHPORT PIER   2040   36        CALM     1011.9R
KEWAUNEE LAKESHO 2030   39     170/  2/  4 1011.6R
SHEBOYGAN LAKESH 2000   37     170/  3/  4 1012.8R
PORT WASHINGTON  2030   40      CALM  /  2 1013.5R
MILWAUKEE LAKESH 2030   39      70/  2/  2   N/A
KENOSHA   LAKESH 2000   40     180/  8/ 10 1012.5
$$

TC  - TEMPERATURE IN CELSIUS
VSB - VISIBILITY IN STATUTE MILES
WCI - WIND CHILL INDEX
HX  - HEAT INDEX





USA.gov is the U.S. government's official web portal to all federal, state and local government web resources and services.